星链-3778 (STARLINK-3778 )

导读

STARLINK-3778是美国太空探索技术公司(SpaceX)星链(Starlink)互联网卫星星座中的一颗卫星,于2022年4月21日发射入轨。星链项目旨在构建全球卫星互联网,为全球各地提供高速互联网接入服务,该卫星承担着扩展星座覆盖范围、提升网络服务容量与稳定性的任务,是星链计划持续部署中的重要组成部分。

Basic Information
目录编号:
52276
目录名称:
STARLINK-3778
国际标识:
2022-041R
轨道中心:
EARTH
卫星名称:
星链-3778
卫星全名:
星链-3778 (STARLINK-3778 )
卫星状态:
在轨 (已飞行1597 天)
发射日期:
2022-04-21 UTC
国别 :
美国 (US)
星等 :
--
Orbit Information
数据来源 国际轨道数据
星历时间: 2026-09-03T18:07:49+0800
20小时前
查看轨道信息
半长轴: 6843.375km
偏心率: 0.0001004
轨道倾角: 53.162°
近地点辐角 82.297°
升交点赤经 27.491°
平近点角 277.815°
近地点: 464.55km
远地点: 465.926km
周期: 93.900分钟
每日圈数: 15.335476
Detailed Information
固有亮度:
5
最大亮度:
2.5
卫星平台:
Starlink v1.5
覆盖范围:
全球
运营商:
太空探索技术公司
运营商所在国:
美国
制造商(研发单位):
太空探索技术公司
制造商所在国:
美国
使用方式:
暂无
Satellite Introduction
星链(Starlink)计划是由太空探索技术公司(SpaceX)提出的一个巨型低轨卫星互联网星座项目,计划在2019年至2024年间在太空搭建由约1.2万颗卫星组成的“星链”网络,其中1584颗将部署在地球上空550千米处的近地轨道,并从2020年开始工作。该卫星仍在工作。
2D Orbit Map
3D Orbit Map
Orbit Altitude Analysis Chart
Orbit Inclination Analysis Chart
Orbit Comprehensive Analysis Chart
View Comprehensive Chart
Conjunction Data List
Event ID Objects TCA Miss Dist (km) Collision Risk Probability Collision Risk Index (CRI) Action
CDM_260904-205705-227606-753821
2026-09-04T
20:57:56+0000
2.256 km
极远距离
1.959671E-6 低风险 0.41
CDM_260904-205305-227606-814821
2026-09-04T
20:53:47+0000
2.382 km
极远距离
1.754207E-6 低风险 0.4
CDM_260903-120705-227606-757622
2026-09-03T
12:07:54+0000
2.258 km
极远距离
1.751453E-6 低风险 0.4
CDM_260902-202305-227606-956123
2026-09-02T
20:23:55+0000
2.457 km
极远距离
1.670715E-6 低风险 0.39
CDM_260903-103005-227606-821121
2026-09-03T
10:30:11+0000
2.381 km
极远距离
1.647527E-6 低风险 0.39
CDM_260905-010405-227606-787921
2026-09-05T
01:04:29+0000
2.617 km
极远距离
1.608405E-6 低风险 0.39
CDM_260905-090105-227606-802421
2026-09-05T
09:01:54+0000
2.710 km
极远距离
1.533708E-6 低风险 0.39
CDM_260903-205005-227605-872121
2026-09-03T
20:50:01+0000
2.323 km
极远距离
1.506839E-6 低风险 0.39
CDM_260904-024005-227606-946121
2026-09-04T
02:40:58+0000
2.515 km
极远距离
1.499705E-6 低风险 0.39
CDM_260904-225905-227606-832221
2026-09-04T
22:59:02+0000
2.636 km
极远距离
1.408856E-6 低风险 0.38